User: anonymous   Login
Location: Artiguedieu
(43.5000°N, 0.5454°E)
Time: 17:11:01
(UTC+00:00)
Language:

Tiros 1 - Orbit

View from above orbital plane
View from above orbital plane
View from above satellite
View from above satellite

Ground track
Ground track

The orbit data is extracted from the following two-line orbital elements,

1 00029U 60002B   21208.66136278 -.00000109  00000-0  14743-4 0  9995
2 00029  48.3780 196.1985 0023807 167.7612 192.3883 14.74441635278338
Epoch (UTC): 27 July 2021 15:52:21
Eccentricity: 0.0023807
inclination: 48.3780°
perigee height: 630 km
apogee height: 663 km
right ascension of ascending node: 196.1985°
argument of perigee: 167.7612°
revolutions per day: 14.74441635
mean anomaly at epoch: 192.3883°
orbit number at epoch: 27833

The dashed part of the orbit path shows where the satellite is in the earth's shadow,  

DLR